This is the latest recevied weather packets stored in our database for station/object W4CKA. If no packets are shown the sender has not sent any weather packets the latest 10 day(s).
| Time | Temp. | Humidity | Pressure | Rain* | Wind** | Luminosity | Snow |
|---|---|---|---|---|---|---|---|
| 1777847533 | 17.78° C | 43% | 1058.8 hPa | 0 mm | - | 187 W/m² | - |
| 1777846933 | 17.78° C | 42% | 1058.6 hPa | 0 mm | - | 187 W/m² | - |
| 1777846329 | 17.78° C | 43% | 1058.9 hPa | 0 mm | - | 203 W/m² | - |
| 1777845728 | 18.33° C | 44% | 1059 hPa | 0 mm | - | 257 W/m² | - |
| 1777845127 | 17.78° C | 41% | 1058.9 hPa | 0 mm | - | 280 W/m² | - |
| 1777844527 | 17.78° C | 42% | 1059 hPa | 0 mm | - | 317 W/m² | - |
| 1777843922 | 17.78° C | 42% | 1059.2 hPa | 0 mm | - | 362 W/m² | - |
| 1777843322 | 18.89° C | 41% | 1059.3 hPa | 0 mm | - | 391 W/m² | - |
| 1777842721 | 18.33° C | 41% | 1059.2 hPa | 0 mm | - | 389 W/m² | - |
| 1777842121 | 17.78° C | 38% | 1059.2 hPa | 0 mm | - | 365 W/m² | - |
| 1777841518 | 17.78° C | 40% | 1059.6 hPa | 0 mm | - | 465 W/m² | - |
| 1777840918 | 18.33° C | 39% | 1059.5 hPa | 0 mm | - | 541 W/m² | - |
| 1777840313 | 17.78° C | 40% | 1059.7 hPa | 0 mm | - | 537 W/m² | - |
| 1777839714 | 17.78° C | 38% | 1059.9 hPa | 0 mm | - | 586 W/m² | - |
| 1777839109 | 17.78° C | 42% | 1060.1 hPa | 0 mm | - | 533 W/m² | - |
| 1777838507 | 17.22° C | 38% | 1060 hPa | 0 mm | - | 632 W/m² | - |
| 1777837907 | 17.22° C | 37% | 1060.4 hPa | 0 mm | - | 613 W/m² | - |
| 1777837305 | 17.78° C | 39% | 1060.5 hPa | 0 mm | - | 528 W/m² | - |
| 1777836704 | 17.22° C | 39% | 1060.5 hPa | 0 mm | - | 651 W/m² | - |
| 1777836100 | 16.67° C | 43% | 1060.9 hPa | 0 mm | - | 690 W/m² | - |
| 1777835500 | 16.67° C | 39% | 1060.9 hPa | 0 mm | - | 684 W/m² | - |
| 1777834900 | 16.11° C | 45% | 1060.8 hPa | 0 mm | - | 674 W/m² | - |
| 1777834298 | 16.11° C | 40% | 1061.3 hPa | 0 mm | - | 718 W/m² | - |
| 1777833696 | 16.67° C | 43% | 1061 hPa | 0 mm | - | 674 W/m² | - |
| 1777833096 | 16.11° C | 39% | 1061.4 hPa | 0 mm | - | 699 W/m² | - |
* Rain latest hour (hover to see other rain measurements)
** Current wind speed in m/s (hover to see current wind gust speed)